Location: San Martino di Castrozza
(46.2667°N, 11.8000°E)
Time: 15:44:03
(UTC+00:00)

Cosmos 2084 - Pass Details

Date: 23 April 2021
Orbit: 546 x 636 km, 62.8° (Epoch: 13 May)

Event Time Altitude Azimuth Distance (km) Brightness Sun altitude
Exits shadow 01:47:48 62° 271° (W) 638 3.3 -21.5°
Maximum altitude 01:48:14 69° 312° (NW) 611 3.4 -21.4°
Drops below altitude 10° 01:52:29 10° 36° (NE) 1,898 7.2 -20.9°
Sets 01:54:47 0° 39° (NE) 2,816 8.5 -20.7°
